STARLINK-32632, 62262

Orbit data source: Space-Track

STARLINK-32632, 62262 is a payload satellite owned by SpaceX/Seattle (US) in LEO that was launched on Thu, 05 Dec 2024 UTC via an FALCON 9 launch vehicle from the Air Force Western Test Range (AFWTR). Payload-class satellites include a variety of spacecraft equipped with specific instruments for various scientific and technological missions. These include communications satellites like Starlink; space stations such as the ISS; scientific satellites like the Hubble; Earth observation satellites from companies like Planet Labs, Umbra, and HawkEye 360; GPS; miniature CubeSats for education and research; and military/defense satellites.

Loading next visibility...
Identifier
62262, 2024-231V
Orbit
LEO
Country
Flag of USUS
Related business
Manufacturer
SpaceX/Seattle
Mission
Operational Commercial Communications
Bus & Motor
STARLINK V2M, Unknown motor
Mass
730 kg wet, ~700 kg dry
Launch date (UTC)
2024-12-05 (11 months ago)
Launch vehicle
FALCON 9
Launch site
Air Force Western Test Range (AFWTR)
Object type
Payload
Rocket body
Debris
Shape & HBR
Box + 2 Pan, 17.7 m
Radar Cross Section
33.884 m², Large (>1 m²)

Expand to show TLE details & history
Last TLE update: 8 hours ago

TLE from 8 hours ago
0 STARLINK-32632
1 62262U 24231V   25296.57232896  .00040901  00000-0  13841-2 0  9999
2 62262  53.1565 136.6239 0002081 321.2239  38.8612 15.30232852 50776
Epoch: 2025-10-23T13:44Z
TLE epoch observation values (Epoch: 2025-10-23T13:44:09.222Z)
Latitude
-0.00002°
Longitude
-101.64419°
Altitude
474.906 km
Speed
7.63 km/s
True Right ascension
09h 06m 29s
True Declination
0° 00' 00"
Sunlit
Object was in daylight at epoch
Visualization orbit readout
Latitude
Unknown
Longitude
Unknown
Altitude
Unknown
Speed
Unknown
Apparent Right ascension
Unknown
Apparent Declination
Unknown
Sunlit
N/A
Visualization observer readout
Local Sidereal Time
16:30:21
Azimuth
Unknown
Elevation
Unknown
Doppler factor
Unknown
Orbital elements
Apogee altitude
476.8 km
Perigee altitude
473.948 km
Semi-major axis
6,853.511 km
Eccentricity
0.00021
Inclination
53.1565°
RAAN
136.6239°
Arg. of periapsis
321.2239°
True anomaly
38.87617°
Mean anomaly
38.8612°
Eccentric anomaly
38.86868°
Mean motion
3.82537 °/min
Orbital period
94.11 mins
BSTAR
0.0013841
Loading maneuver chart data...
Computing Atmospheric mass density...
Loading historical data...
Loading historical data...
Loading historical data...
Loading historical data...
Loading historical data...
Loading historical data...
Loading historical data...

Documentation

Showing up to 5 results
|